GW7261 Weather Reports


time (UTC)temp
C
wind
direction
speed
KPH
gust
KPH
rain 1hr
cm
rain 24hr
cm
rain mn
cm
humidity
%
barometer
mb
20260906121331 21 45 1.6 9.7 0.00 0.00 0.00 96 1019.3
20260906115531 20 315 0.0 0.0 0.00 0.00 0.00 94 1018.9
20260906114931 20 315 0.0 1.6 0.00 0.00 0.00 94 1018.9
20260906114330 20 315 0.0 0.0 0.00 0.00 0.00 93 1018.8
20260906113730 20 315 0.0 0.0 0.00 0.00 0.00 95 1018.7
20260906113130 20 315 0.0 0.0 0.00 0.00 0.00 93 1018.7
20260906112530 20 315 0.0 0.0 0.00 0.00 0.00 93 1018.5
20260906111930 20 90 0.0 0.0 0.00 0.00 0.00 95 1018.3
20260906111329 20 90 0.0 0.0 0.00 0.00 0.00 96 1018.3
20260906110729 20 90 0.0 0.0 0.00 0.00 0.00 96 1018.4
20260906110129 21 90 0.0 3.2 0.00 0.00 0.00 96 1018.4
20260906105529 20 315 0.0 0.0 0.00 0.00 0.00 94 1018.4
20260906104329 21 180 0.0 0.0 0.00 0.00 0.00 91 1018.1
20260906103728 21 180 0.0 0.0 0.00 0.00 0.00 92 1018.0
20260906103128 21 180 0.0 0.0 0.00 0.00 0.00 93 1017.9
20260906102528 21 270 0.0 0.0 0.00 0.00 0.00 95 1017.9
20260906101928 21 270 0.0 0.0 0.00 0.00 0.00 96 1017.9
20260906101328 21 90 0.0 0.0 0.00 0.00 0.00 96 1017.9
20260906100727 21 90 0.0 0.0 0.00 0.00 0.00 95 1017.9
20260906094927 21 315 0.0 1.6 0.00 0.00 0.00 94 1017.8
20260906094327 21 90 0.0 0.0 0.00 0.00 0.00 88 1017.8
20260906092526 21 90 0.0 0.0 0.00 0.00 0.00 92 1017.8
20260906091926 21 90 0.0 0.0 0.00 0.00 0.00 91 1017.7
20260906091326 21 315 0.0 0.0 0.00 0.00 0.00 91 1017.6
20260906090726 21 315 0.0 1.6 0.00 0.00 0.00 86 1017.6
20260906090126 21 315 0.0 0.0 0.00 0.00 0.00 86 1017.6
20260906085525 21 315 0.0 0.0 0.00 0.00 0.00 85 1017.6
20260906084925 22 315 0.0 0.0 0.00 0.00 0.00 87 1017.7
20260906084325 22 315 0.0 0.0 0.00 0.00 0.00 87 1017.6
20260906083725 22 315 0.0 0.0 0.00 0.00 0.00 84 1017.6
20260906083125 22 315 0.0 0.0 0.00 0.00 0.00 84 1017.6
20260906082524 22 315 0.0 0.0 0.00 0.00 0.00 86 1017.5
20260906081924 22 315 0.0 0.0 0.00 0.00 0.00 86 1017.5
20260906081324 22 225 0.0 0.0 0.00 0.00 0.00 85 1017.6
20260906080724 22 225 0.0 0.0 0.00 0.00 0.00 85 1017.7
20260906080123 22 225 0.0 0.0 0.00 0.00 0.00 86 1017.8
20260906074923 22 90 0.0 1.6 0.00 0.00 0.00 88 1017.8
20260906073723 22 0 0.0 3.2 0.00 0.00 0.00 89 1017.8
20260906073123 22 135 0.0 1.6 0.00 0.00 0.00 88 1017.8
20260906072522 22 315 0.0 1.6 0.00 0.00 0.00 88 1017.7
20260906071923 22 0 0.0 0.0 0.00 0.00 0.00 87 1017.7
20260906071322 22 0 0.0 1.6 0.00 0.00 0.00 87 1017.9
20260906070722 22 0 0.0 1.6 0.00 0.00 0.00 87 1017.9
20260906070122 22 270 0.0 1.6 0.00 0.00 0.00 86 1017.9
20260906065522 22 90 0.0 3.2 0.00 0.00 0.00 86 1017.9
20260906064921 22 90 1.6 6.4 0.00 0.00 0.00 85 1017.9
20260906063721 22 90 3.2 8.0 0.00 0.00 0.00 85 1017.7
20260906063121 22 45 3.2 8.0 0.00 0.00 0.00 85 1017.8
20260906062521 22 90 6.4 19.3 0.00 0.00 0.00 85 1017.9
20260906061921 22 45 3.2 9.7 0.00 0.00 0.00 84 1017.7
20260906061320 22 90 3.2 9.7 0.00 0.00 0.00 83 1017.8
20260906060720 22 45 1.6 4.8 0.00 0.00 0.00 82 1017.8
20260906060120 22 45 3.2 8.0 0.00 0.00 0.00 82 1017.8
20260906055520 22 90 4.8 12.9 0.00 0.00 0.00 81 1017.7
20260906054920 22 90 6.4 12.9 0.00 0.00 0.00 80 1017.7
20260906054320 22 90 6.4 14.5 0.00 0.00 0.00 80 1017.8
20260906053720 22 90 6.4 14.5 0.00 0.00 0.00 80 1017.7
20260906053119 23 0 1.6 4.8 0.00 0.00 0.00 80 1017.8
20260906052519 23 90 3.2 4.8 0.00 0.00 0.00 80 1017.7
20260906051919 23 90 1.6 4.8 0.00 0.00 0.00 80 1017.6
20260906051319 23 90 8.0 16.1 0.00 0.00 0.00 80 1017.6
20260906050719 23 90 1.6 9.7 0.00 0.00 0.00 80 1017.5
20260906045519 23 90 6.4 12.9 0.00 0.00 0.00 80 1017.5
20260906044918 23 45 4.8 11.3 0.00 0.00 0.00 80 1017.4
20260906044318 23 0 4.8 9.7 0.00 0.00 0.00 80 1017.4
20260906043718 22 90 3.2 9.7 0.00 0.00 0.00 80 1017.2
20260906043118 22 90 9.7 22.5 0.00 0.00 0.00 80 1017.1
20260906041918 22 90 1.6 8.0 0.00 0.00 0.00 80 1016.8
20260906041317 22 45 1.6 6.4 0.00 0.00 0.00 80 1016.8
20260906040717 22 90 3.2 11.3 0.00 0.00 0.00 80 1016.7
20260906040117 22 90 3.2 9.7 0.00 0.00 0.00 80 1016.7
20260906035517 23 45 3.2 6.4 0.00 0.00 0.00 80 1016.6
20260906034917 23 90 8.0 16.1 0.00 0.00 0.00 79 1016.7
20260906033716 23 90 6.4 17.7 0.00 0.00 0.00 79 1016.6
20260906033116 23 90 6.4 16.1 0.00 0.00 0.00 79 1016.6
20260906032516 23 90 11.3 20.9 0.00 0.00 0.00 79 1016.6
20260906031916 23 45 4.8 14.5 0.00 0.00 0.00 79 1016.6
20260906031316 23 90 6.4 16.1 0.00 0.00 0.00 79 1016.6
20260906030715 23 90 8.0 17.7 0.00 0.00 0.00 79 1016.7
20260906030116 23 90 6.4 12.9 0.00 0.00 0.00 78 1016.6
20260906025515 23 90 4.8 9.7 0.00 0.00 0.00 78 1016.7
20260906024915 23 90 9.7 20.9 0.00 0.00 0.00 78 1016.7
20260906024315 23 45 8.0 20.9 0.00 0.00 0.00 78 1016.7
20260906023715 23 90 4.8 14.5 0.00 0.00 0.00 78 1016.7
20260906023114 23 90 6.4 12.9 0.00 0.00 0.00 78 1016.7
20260906021914 23 90 8.0 16.1 0.00 0.00 0.00 78 1016.5
20260906021314 23 45 4.8 12.9 0.00 0.00 0.00 78 1016.5
20260906020714 23 90 12.9 24.1 0.00 0.00 0.00 79 1016.5
20260906020113 23 90 6.4 17.7 0.00 0.00 0.00 79 1016.6
20260906015514 23 90 11.3 22.5 0.00 0.00 0.00 79 1016.7
20260906014913 23 45 6.4 12.9 0.00 0.00 0.00 79 1016.9
20260906014313 23 90 11.3 30.6 0.00 0.00 0.00 78 1016.8
20260906013713 23 90 9.7 24.1 0.00 0.00 0.00 78 1016.7
20260906013113 23 90 8.0 19.3 0.00 0.00 0.00 78 1016.7
20260906011913 23 90 9.7 22.5 0.00 0.00 0.00 78 1016.8
20260906011312 23 90 11.3 24.1 0.00 0.00 0.00 79 1016.8
20260906010712 23 90 6.4 12.9 0.00 0.00 0.00 78 1016.7
20260906005512 23 90 6.4 12.9 0.00 0.00 0.00 79 1016.6
20260906004911 23 90 4.8 12.9 0.00 0.00 0.00 78 1016.4
20260906004312 23 45 8.0 20.9 0.00 0.00 0.00 78 1016.4
20260906003711 23 0 6.4 16.1 0.00 0.00 0.00 78 1016.2
20260906003111 23 90 4.8 11.3 0.00 0.00 0.00 78 1016.2
20260906002511 23 45 6.4 14.5 0.00 0.00 0.00 78 1016.1
20260906001911 23 90 6.4 17.7 0.00 0.00 0.00 78 1016.1
20260906001311 23 90 14.5 25.7 0.00 0.00 0.00 78 1016.1
20260906000711 23 90 8.0 24.1 0.00 0.00 0.00 78 1016.1
20260906000110 23 45 12.9 24.1 0.00 0.00 0.00 78 1016.0
20260905235510 23 45 9.7 14.5 0.00 0.00 0.00 78 1016.1
20260905234910 23 90 9.7 22.5 0.00 0.00 0.00 78 1016.2
20260905233710 23 90 11.3 29.0 0.00 0.00 0.00 78 1016.1
20260905233109 24 90 8.0 30.6 0.00 0.00 0.00 77 1016.1
20260905232509 24 90 11.3 20.9 0.00 0.00 0.00 77 1015.9
20260905231909 25 45 9.7 19.3 0.00 0.00 0.00 76 1015.7
20260905231309 25 45 6.4 22.5 0.00 0.00 0.00 75 1015.6
20260905230109 25 45 11.3 20.9 0.00 0.00 0.00 75 1015.5
20260905225509 26 90 14.5 22.5 0.00 0.00 0.00 74 1015.4
20260905224908 26 45 6.4 11.3 0.00 0.00 0.00 74 1015.5
20260905224308 26 90 9.7 19.3 0.00 0.00 0.00 73 1015.4
20260905223108 27 90 12.9 24.1 0.00 0.00 0.00 71 1015.1
20260905222508 27 90 11.3 30.6 0.00 0.00 0.00 71 1015.0
20260905221907 27 90 9.7 19.3 0.00 0.00 0.00 70 1015.1
20260905221307 28 90 4.8 9.7 0.00 0.00 0.00 70 1015.1
20260905220108 27 90 4.8 12.9 0.00 0.00 0.00 70 1015.2
20260905215507 27 45 4.8 9.7 0.00 0.00 0.00 70 1015.1
20260905214907 28 90 3.2 8.0 0.00 0.00 0.00 70 1015.0
20260905213706 28 90 6.4 17.7 0.00 0.00 0.00 68 1015.0
20260905213106 28 90 6.4 14.5 0.00 0.00 0.00 70 1015.1
20260905212506 28 90 1.6 4.8 0.00 0.00 0.00 69 1015.0
20260905211906 28 0 1.6 8.0 0.00 0.00 0.00 70 1015.0
20260905210705 28 90 4.8 16.1 0.00 0.00 0.00 70 1015.0
20260905204905 28 90 4.8 9.7 0.00 0.00 0.00 71 1015.3
20260905203705 27 0 1.6 3.2 0.00 0.00 0.00 74 1015.4
20260905203105 27 0 3.2 9.7 0.00 0.00 0.00 74 1015.4
20260905202505 27 0 3.2 8.0 0.00 0.00 0.00 74 1015.4
20260905201904 27 90 4.8 11.3 0.00 0.00 0.00 73 1015.3
20260905201304 27 45 1.6 6.4 0.00 0.00 0.00 72 1015.4
20260905200104 27 90 4.8 12.9 0.00 0.00 0.00 72 1015.4
20260905194904 27 90 4.8 19.3 0.00 0.00 0.00 73 1015.3
20260905194303 27 0 4.8 9.7 0.00 0.00 0.00 72 1015.3
20260905193703 27 90 4.8 12.9 0.00 0.00 0.00 72 1015.3
20260905192503 28 90 4.8 9.7 0.00 0.00 0.00 71 1015.5
20260905191903 28 45 3.2 11.3 0.00 0.00 0.00 71 1015.5
20260905191303 28 45 3.2 9.7 0.00 0.00 0.00 71 1015.5
20260905190702 28 90 6.4 14.5 0.00 0.00 0.00 71 1015.5
20260905185502 28 45 1.6 6.4 0.00 0.00 0.00 71 1015.6
20260905184902 28 45 3.2 9.7 0.00 0.00 0.00 71 1015.5
20260905184302 28 45 3.2 8.0 0.00 0.00 0.00 71 1015.6
20260905183102 28 90 1.6 4.8 0.00 0.00 0.00 71 1015.7
20260905182501 28 90 4.8 12.9 0.00 0.00 0.00 72 1015.7
20260905181901 28 90 3.2 8.0 0.00 0.00 0.00 71 1015.6
20260905181301 29 0 1.6 4.8 0.00 0.00 0.00 70 1015.5
20260905180701 29 45 1.6 6.4 0.00 0.00 0.00 71 1015.4
20260905180101 28 45 3.2 12.9 0.00 0.00 0.00 70 1015.4
20260905175500 28 90 4.8 11.3 0.00 0.00 0.00 71 1015.4
20260905174900 28 0 4.8 9.7 0.00 0.00 0.00 71 1015.4
20260905174300 28 90 6.4 17.7 0.00 0.00 0.00 71 1015.4
20260905173700 28 90 3.2 9.7 0.00 0.00 0.00 72 1015.4
20260905173100 28 45 6.4 12.9 0.00 0.00 0.00 72 1015.5
20260905171259 28 90 12.9 33.8 0.00 0.00 0.00 72 1015.3
20260905170659 28 90 6.4 16.1 0.00 0.00 0.00 72 1015.4
20260905170059 28 45 4.8 14.5 0.00 0.00 0.00 73 1015.5
20260905164858 28 90 4.8 8.0 0.00 0.00 0.00 73 1015.7
20260905164259 28 90 8.0 17.7 0.00 0.00 0.00 73 1015.6
20260905163658 28 90 11.3 19.3 0.00 0.00 0.00 73 1015.7
20260905163058 28 90 9.7 17.7 0.00 0.00 0.00 72 1015.7
20260905162458 28 90 4.8 14.5 0.00 0.00 0.00 73 1015.5
20260905161257 28 0 1.6 4.8 0.00 0.00 0.00 73 1015.6
20260905160657 28 90 4.8 9.7 0.00 0.00 0.00 72 1015.5
20260905160057 28 90 4.8 11.3 0.00 0.00 0.00 73 1015.5
20260905155457 28 45 8.0 14.5 0.00 0.00 0.00 73 1015.5
20260905154857 28 90 3.2 4.8 0.00 0.00 0.00 74 1015.4
20260905154257 28 90 3.2 6.4 0.00 0.00 0.00 72 1015.3
20260905153656 27 90 9.7 20.9 0.00 0.00 0.00 73 1015.3
20260905153056 27 90 4.8 11.3 0.00 0.00 0.00 73 1015.3
20260905152456 27 90 3.2 8.0 0.00 0.00 0.00 73 1015.2
20260905151856 27 90 6.4 14.5 0.00 0.00 0.00 74 1015.1
20260905151256 27 90 4.8 9.7 0.00 0.00 0.00 75 1015.1
20260905150656 27 90 3.2 16.1 0.00 0.00 0.00 75 1015.2
20260905150056 27 90 8.0 14.5 0.00 0.00 0.00 75 1015.1
20260905145455 27 90 4.8 14.5 0.00 0.00 0.00 75 1015.1
20260905144855 27 45 1.6 4.8 0.00 0.00 0.00 76 1015.0
20260905143055 27 90 3.2 8.0 0.00 0.00 0.00 75 1015.0
20260905142455 27 45 3.2 9.7 0.00 0.00 0.00 75 1014.9
20260905141254 26 45 3.2 9.7 0.00 0.00 0.00 76 1014.8
20260905140054 26 45 3.2 9.7 0.00 0.00 0.00 78 1014.7
20260905134854 25 135 1.6 4.8 0.00 0.00 0.00 83 1014.6
20260905134254 25 0 1.6 4.8 0.00 0.00 0.00 87 1014.8
20260905133653 24 90 1.6 3.2 0.00 0.00 0.00 89 1014.9
20260905133053 24 90 4.8 9.7 0.00 0.00 0.00 92 1015.1
20260905132453 24 90 1.6 4.8 0.00 0.00 0.00 91 1015.1
20260905131853 24 45 1.6 3.2 0.00 0.00 0.00 92 1015.3
20260905131253 24 90 1.6 6.4 0.00 0.00 0.00 92 1015.0
20260905130652 24 90 3.2 9.7 0.00 0.00 0.00 92 1014.7
20260905130052 24 90 3.2 8.0 0.00 0.00 0.00 93 1014.6
20260905125452 24 90 3.2 8.0 0.00 0.00 0.00 95 1014.5
20260905124852 23 45 1.6 6.4 0.00 0.00 0.00 96 1014.4
20260905124252 23 45 1.6 3.2 0.00 0.00 0.00 96 1014.3
20260905123652 23 45 3.2 14.5 0.00 0.00 0.00 96 1014.3
20260905123051 23 90 4.8 8.0 0.00 0.00 0.00 96 1014.2